Location: Palomar Mountain Lodge
(33.3110°N, 116.8495°W)
Time: 05:41:10
(UTC-07:00)

Tiangong - Pass Details

Date: 17 February 2026
Orbit: 381 x 391 km, 41.5° (Epoch: 8 March)

Event Time Altitude Azimuth Distance (km) Brightness Sun altitude
Rises 17:49:11 0° 295° (WNW) 2,251 2.7 -3.9°
Reaches altitude 10° 17:51:42 10° 316° (NW) 1,395 1.2 -4.4°
Maximum altitude 17:53:57 18° 1° (N) 1,022 -0.1 -4.9°
Drops below altitude 10° 17:56:16 10° 48° (NE) 1,409 0.2 -5.3°
Enters shadow 17:57:16 - 59° (ENE) 1,723 0.6 -5.5°
